STARLINK-1882 (46784 NORAD) Tracking and Keplerian Element Data
This shows tracking and keplerian element data for the satellite.
Feedback or suggestion? Click here.
Element | Value |
Catalog | 46784 |
Name | STARLINK-1882 |
Epoch Orbit | 1354 |
Epoch Day | 18.00001157 |
Epoch Year | 2021 |
RAAN | 102.4126 |
Inclination | 53.0541 |
Eccentricity | 0.0002609 |
Argument of Perigee | 22.1243 |
Mean Anonmoly | 227.9394 |
Mean Motion | 15.62750892 |
Decay Rate | 0.00033472 |
L1 | 1 46784U 20074AX 21018.00001157 .00033472 00000-0 36989-3 0 9995 |
L2 | 2 46784 53.0541 102.4126 0002609 22.1243 227.9394 15.62750892 13540 |
Live tracking and technical data element details for STARLINK-1882 (NORAD 46784). STARLINK-1882 can be tracked NOW for your location showing map with azimuth and elevation plus other details from your city location.
Track the satellite on the map from your city or location and see movement details for azimuth, elevation, latitude, longitude, range, height, and movement on the map or in text.
IsCatalogInMostPopularTable: catalog: 46784, numindb: 29
Update: records affected: 1
GetName: 46784 STARLINK-1882
Hit Count: updated at: Mon, 18 Jan 2021 15:49:40 GMT